Weather in Tobolskiy

Russia / Orenburg Oblast     51°26′37″N   61°09′26″E
temp.,
°C
wind,
m/s
gust,
m/s
humid.,
%
clouds,
%
prec.,
mm/h
press.,
hPa
HPBL,
m
27 february, sat
sat2723:00−26sse459973 0.0 103083
02:00−25sse469992 0.0 102796
05:00−20sse5109795 0.1 1025319
08:00−15sse71593100 0.2 1021549
11:00−12s101690100 0.3 1018698
14:00−10s111793100 1.1 1015784
17:00−9s101693100 2.9 1013835
20:00−7s91593100 0.7 1010646
28 february, sun
sun2823:00−5s71394100 1.1 1007466
02:00−4ssw61094100 0.3 1005334
05:00−2s4996100 0.4 1003281
08:000sw4899100 1.7 1002325
11:000sw58100100 2.8 1001424
14:000wsw61185100 0.4 1002835
17:00−1wsw5109584 0.6 1003595
20:00−3sw6119499 0.1 1005303
1 march, mon
mon123:00−10w7129293 0.1 1008246
02:00−12w7129357 0.0 1011234
05:00−15w589542 0.0 1013125
08:00−16w449665 0.0 101571
11:00−13wnw349475 0.0 1016163
14:00−11w349283 0.0 1017257
17:00−12w239588 0.0 101843
20:00−16wsw349684 0.1 101831
2 march, tue
tue223:00−17w449787 0.1 101957
02:00−18w449787 0.1 101980
05:00−18w469689 0.1 1018101
08:00−20w459886 0.0 101876
11:00−16w469589 0.1 1018243
14:00−15w579289 0.0 1018325
17:00−17wsw599376 0.0 1018307
20:00−20wsw5109748 0.0 1018160
3 march, wed
wed323:00−21wsw5119524 0.0 1019194
02:00−22wsw59960 0.0 1018147
05:00−20sw599441 0.0 1017140
08:00−17ssw6119557 0.0 1016209
11:00−11ssw7129478 0.1 1014339
14:00−8ssw81491100 0.1 1013460
17:00−6ssw91590100 0.1 1011599
20:00−4s81592100 0.1 1009646